Terug naar catalogus

STARLINK-36930

ActiefCommunicatieSSO
NORAD 68018·PAYLOAD·🇺🇸 United States

Gelanceerd Mar 1, 2026 vanaf Vandenberg Space Force Base

Loading…

Volgende Passages (komende 24 uur)

TLE

VersSource: CelesTrak SupGP

Epoch: Sep 15, 2026, 03:49 UTC

1 68018C 26040D   26258.15951389  .00070534  00000+0  21920-2 0  2581
2 68018  97.2853 205.5004 0001609  94.9107 300.4677 15.33366821    17

Volg STARLINK-36930 in realtime met AllMySat

Download on the App Store